Estación de Curicó
Ultimos registro cada 15 minutos 47
| N° | Estación | Fecha / Hora | Temperatura | Humedad | Lluvia | Velocidad | Dirección | Radiación | Presion |
| 47 | Curicó | 08-05-2026 11:30 | 16,2 | 67,5 | 0 | 0 | 27 | 500,6 | 993,7 |
| 46 | Curicó | 08-05-2026 11:15 | 15,6 | 69,2 | 0 | 0,3 | 10 | 479,4 | 993,9 |
| 45 | Curicó | 08-05-2026 11:00 | 14 | 72,1 | 0 | 0,7 | 65 | 460,6 | 994 |
| 44 | Curicó | 08-05-2026 10:45 | 13,1 | 75,1 | 0 | 0,7 | 45 | 439,4 | 993,9 |
| 43 | Curicó | 08-05-2026 10:30 | 12,4 | 76,4 | 0 | 0,3 | 29 | 415,6 | 994,4 |
| 42 | Curicó | 08-05-2026 10:15 | 11,3 | 83,8 | 0 | 0,3 | 73 | 393,1 | 994,7 |
| 41 | Curicó | 08-05-2026 10:00 | 11,2 | 88,7 | 0 | 0 | 347 | 351,9 | 995,2 |
| 40 | Curicó | 08-05-2026 09:45 | 10,3 | 91,5 | 0 | 0 | 84 | 338,1 | 995,3 |
| 39 | Curicó | 08-05-2026 09:30 | 10,9 | 93,6 | 0 | 0 | 84 | 290,6 | 996,1 |
| 38 | Curicó | 08-05-2026 09:15 | 9,9 | 95,2 | 0 | 0 | 80 | 249,4 | 996,1 |
| 37 | Curicó | 08-05-2026 09:00 | 7,4 | 95,7 | 0 | 0,3 | 51 | 221,9 | 995,9 |
| 36 | Curicó | 08-05-2026 08:45 | 6,1 | 96,3 | 0 | 0 | 52 | 185,6 | 996,1 |
| 35 | Curicó | 08-05-2026 08:30 | 5,3 | 96,5 | 0 | 0 | 58 | 151,9 | 995,9 |
| 34 | Curicó | 08-05-2026 08:15 | 3,4 | 96,8 | 0 | 0 | 63 | 105,6 | 995,8 |
| 33 | Curicó | 08-05-2026 08:00 | 2,4 | 96,7 | 0 | 0 | 63 | 60,6 | 995,8 |
| 32 | Curicó | 08-05-2026 07:45 | 1,2 | 97 | 0 | 0 | 72 | 15,6 | 995,9 |
| 31 | Curicó | 08-05-2026 07:30 | 0,7 | 96,8 | 0 | 0 | 128 | 3,1 | 996 |
| 30 | Curicó | 08-05-2026 07:15 | 0,2 | 96,4 | 0 | 0 | 163 | 0,6 | 995,9 |
| 29 | Curicó | 08-05-2026 07:00 | 0,2 | 96,3 | 0 | 0 | 161 | 0,6 | 996,2 |
| 28 | Curicó | 08-05-2026 06:45 | 0,7 | 96,1 | 0 | 0 | 161 | 0,6 | 996,5 |
| 27 | Curicó | 08-05-2026 06:30 | 0,8 | 96,2 | 0 | 0 | 163 | 0,6 | 996,6 |
| 26 | Curicó | 08-05-2026 06:15 | 1,3 | 96,3 | 0 | 0 | 163 | 0,6 | 996,5 |
| 25 | Curicó | 08-05-2026 06:00 | 1,3 | 96,1 | 0 | 0 | 163 | 0,6 | 996,5 |
| 24 | Curicó | 08-05-2026 05:45 | 0,6 | 95,7 | 0 | 0 | 163 | 0,6 | 996,7 |
| 23 | Curicó | 08-05-2026 05:30 | 0,9 | 95,8 | 0 | 0 | 163 | 0,6 | 996,8 |
| 22 | Curicó | 08-05-2026 05:15 | 0,9 | 95,4 | 0 | 0 | 163 | 0,6 | 996,7 |
| 21 | Curicó | 08-05-2026 05:00 | 1,4 | 95,3 | 0 | 0 | 163 | 0,6 | 996,7 |
| 20 | Curicó | 08-05-2026 04:45 | 2 | 95,2 | 0 | 0 | 163 | 0,6 | 996,6 |
| 19 | Curicó | 08-05-2026 04:30 | 2,3 | 95 | 0 | 0 | 163 | 0,6 | 996,4 |
| 18 | Curicó | 08-05-2026 04:15 | 2,6 | 94,8 | 0 | 0 | 163 | 0,6 | 996,4 |
| 17 | Curicó | 08-05-2026 04:00 | 2,6 | 94,8 | 0 | 0 | 163 | 0,6 | 996,5 |
| 16 | Curicó | 08-05-2026 03:45 | 2,1 | 94,5 | 0 | 0 | 163 | 0,6 | 996,9 |
| 15 | Curicó | 08-05-2026 03:30 | 2 | 94,5 | 0 | 0 | 163 | 0,6 | 997,2 |
| 14 | Curicó | 08-05-2026 03:15 | 1,3 | 93,8 | 0 | 0 | 163 | 0,6 | 997,4 |
| 13 | Curicó | 08-05-2026 03:00 | 1,8 | 93,7 | 0 | 0 | 163 | 0,6 | 997,5 |
| 12 | Curicó | 08-05-2026 02:45 | 2 | 93,3 | 0 | 0 | 163 | 0,6 | 997,3 |
| 11 | Curicó | 08-05-2026 02:30 | 2,3 | 93,2 | 0 | 0 | 163 | 0,6 | 997,5 |
| 10 | Curicó | 08-05-2026 02:15 | 2,5 | 92,9 | 0 | 0 | 163 | 0,6 | 997,7 |
| 9 | Curicó | 08-05-2026 02:00 | 2,1 | 92,1 | 0 | 0 | 163 | 0,6 | 997,7 |
| 8 | Curicó | 08-05-2026 01:45 | 2,2 | 91,9 | 0 | 0 | 163 | 0,6 | 997,7 |
| 7 | Curicó | 08-05-2026 01:30 | 2,8 | 91,3 | 0 | 0 | 163 | 0,6 | 997,8 |
| 6 | Curicó | 08-05-2026 01:15 | 3,3 | 90,4 | 0 | 0 | 163 | 0,6 | 998,1 |
| 5 | Curicó | 08-05-2026 01:00 | 3,8 | 89,8 | 0 | 0 | 163 | 0,6 | 998,1 |
| 4 | Curicó | 08-05-2026 00:45 | 4,5 | 89 | 0 | 0 | 163 | 0,6 | 998,2 |
| 3 | Curicó | 08-05-2026 00:30 | 4,9 | 87,3 | 0 | 0 | 163 | 0,6 | 998,4 |
| 2 | Curicó | 08-05-2026 00:15 | 6,4 | 85,9 | 0 | 0 | 164 | 0,6 | 998,2 |
| 1 | Curicó | 08-05-2026 00:00 | 7,2 | 85,4 | 0 | 0 | 208 | 0,6 | 998,8 |